| time (UTC) | temp C | wind direction | speed KPH | gust KPH | rain 1hr cm | rain 24hr cm | rain mn cm | humidity % | barometer mb |
| 20260507060957 | 16 | 219 | 6.4 | 12.9 | 0.00 | 0.08 | 0.08 | 76 | 1013.2 |
| 20260507055957 | 16 | 142 | 3.2 | 9.7 | 0.00 | 0.08 | 0.08 | 76 | 1013.0 |
| 20260507055458 | 16 | 214 | 3.2 | 9.7 | 0.00 | 0.08 | 0.08 | 76 | 1013.2 |
| 20260507055001 | 16 | 160 | 3.2 | 9.7 | 0.00 | 0.08 | 0.08 | 77 | 1012.9 |
| 20260507054457 | 16 | 89 | 0.0 | 9.7 | 0.00 | 0.08 | 0.08 | 77 | 1013.2 |
| 20260507053956 | 16 | 224 | 3.2 | 9.7 | 0.00 | 0.08 | 0.08 | 77 | 1012.9 |
| 20260507053459 | 16 | 181 | 0.0 | 6.4 | 0.00 | 0.08 | 0.08 | 79 | 1013.1 |
| 20260507052500 | 16 | 107 | 0.0 | 0.0 | 0.00 | 0.08 | 0.08 | 81 | 1012.8 |
| 20260507052000 | 16 | 107 | 0.0 | 1.6 | 0.00 | 0.08 | 0.08 | 80 | 1012.7 |
| 20260507051458 | 16 | 107 | 0.0 | 1.6 | 0.00 | 0.08 | 0.08 | 80 | 1012.8 |
| 20260507050959 | 16 | 107 | 0.0 | 3.2 | 0.00 | 0.08 | 0.08 | 80 | 1012.5 |
| 20260507050500 | 16 | 107 | 0.0 | 4.8 | 0.00 | 0.08 | 0.08 | 80 | 1012.6 |
| 20260507045959 | 15 | 98 | 1.6 | 4.8 | 0.00 | 0.08 | 0.08 | 80 | 1012.6 |
| 20260507045458 | 15 | 78 | 1.6 | 4.8 | 0.00 | 0.08 | 0.08 | 80 | 1012.5 |
| 20260507045000 | 15 | 94 | 1.6 | 6.4 | 0.00 | 0.08 | 0.08 | 81 | 1012.4 |
| 20260507044459 | 15 | 158 | 1.6 | 9.7 | 0.00 | 0.08 | 0.08 | 81 | 1012.1 |
| 20260507043501 | 15 | 254 | 4.8 | 11.3 | 0.00 | 0.08 | 0.08 | 83 | 1012.3 |
| 20260507042959 | 15 | 225 | 0.0 | 6.4 | 0.00 | 0.08 | 0.08 | 84 | 1012.1 |
| 20260507042458 | 15 | 238 | 1.6 | 4.8 | 0.00 | 0.08 | 0.08 | 85 | 1012.0 |
| 20260507041946 | 15 | 271 | 3.2 | 4.8 | 0.00 | 0.08 | 0.08 | 85 | 1012.2 |
| 20260507041446 | 15 | 293 | 3.2 | 4.8 | 0.00 | 0.08 | 0.08 | 85 | 1011.9 |
| 20260507040949 | 15 | 274 | 0.0 | 4.8 | 0.00 | 0.08 | 0.08 | 85 | 1012.2 |
| 20260507040444 | 15 | 270 | 1.6 | 6.4 | 0.00 | 0.08 | 0.08 | 85 | 1012.0 |
| 20260507035945 | 14 | 255 | 1.6 | 6.4 | 0.00 | 0.08 | 0.08 | 85 | 1012.1 |
| 20260507035448 | 14 | 229 | 3.2 | 6.4 | 0.00 | 0.08 | 0.08 | 86 | 1012.1 |
| 20260507034944 | 14 | 229 | 4.8 | 6.4 | 0.00 | 0.08 | 0.08 | 86 | 1012.0 |
| 20260507033947 | 14 | 239 | 3.2 | 6.4 | 0.00 | 0.08 | 0.08 | 87 | 1011.8 |
| 20260507033445 | 14 | 256 | 0.0 | 6.4 | 0.00 | 0.08 | 0.08 | 88 | 1011.8 |
| 20260507032948 | 14 | 170 | 0.0 | 6.4 | 0.00 | 0.08 | 0.08 | 90 | 1011.5 |
| 20260507031944 | 13 | 197 | 0.0 | 4.8 | 0.00 | 0.08 | 0.08 | 91 | 1011.6 |
| 20260507030445 | 13 | 129 | 0.0 | 3.2 | 0.00 | 0.08 | 0.08 | 90 | 1011.6 |
| 20260507025448 | 13 | 16 | 0.0 | 0.0 | 0.00 | 0.08 | 0.08 | 89 | 1011.5 |
| 20260507024947 | 13 | 213 | 0.0 | 0.0 | 0.00 | 0.08 | 0.08 | 89 | 1011.6 |
| 20260507024444 | 13 | 305 | 0.0 | 0.0 | 0.00 | 0.08 | 0.08 | 89 | 1011.5 |
| 20260507023449 | 13 | 316 | 0.0 | 0.0 | 0.00 | 0.08 | 0.08 | 88 | 1011.7 |
| 20260507022945 | 13 | 308 | 0.0 | 1.6 | 0.00 | 0.08 | 0.08 | 89 | 1011.6 |
| 20260507022440 | 13 | 228 | 0.0 | 3.2 | 0.00 | 0.08 | 0.08 | 89 | 1011.6 |
| 20260507021933 | 13 | 118 | 3.2 | 3.2 | 0.00 | 0.08 | 0.08 | 89 | 1011.5 |
| 20260507021436 | 13 | 339 | 0.0 | 3.2 | 0.00 | 0.08 | 0.08 | 88 | 1011.8 |
| 20260507020933 | 14 | 279 | 1.6 | 3.2 | 0.00 | 0.08 | 0.08 | 87 | 1011.6 |
| 20260507020433 | 14 | 329 | 0.0 | 3.2 | 0.00 | 0.08 | 0.08 | 87 | 1011.7 |
| 20260507015938 | 14 | 330 | 0.0 | 0.0 | 0.00 | 0.08 | 0.08 | 87 | 1011.6 |
| 20260507015432 | 14 | 330 | 0.0 | 0.0 | 0.00 | 0.08 | 0.08 | 86 | 1011.7 |
| 20260507014932 | 15 | 330 | 0.0 | 0.0 | 0.00 | 0.08 | 0.08 | 86 | 1011.8 |
| 20260507014435 | 15 | 330 | 0.0 | 6.4 | 0.00 | 0.08 | 0.08 | 86 | 1011.7 |
| 20260507013932 | 15 | 330 | 0.0 | 6.4 | 0.00 | 0.08 | 0.08 | 86 | 1011.9 |
| 20260507012935 | 15 | 255 | 0.0 | 0.0 | 0.00 | 0.08 | 0.08 | 84 | 1011.9 |
| 20260507012433 | 15 | 255 | 0.0 | 0.0 | 0.00 | 0.08 | 0.08 | 84 | 1011.8 |
| 20260507011935 | 15 | 255 | 0.0 | 0.0 | 0.00 | 0.08 | 0.08 | 84 | 1011.8 |
| 20260507011435 | 15 | 253 | 0.0 | 0.0 | 0.00 | 0.08 | 0.08 | 83 | 1011.8 |
| 20260507010932 | 15 | 241 | 0.0 | 0.0 | 0.00 | 0.08 | 0.08 | 83 | 1011.7 |
| 20260507010434 | 16 | 170 | 0.0 | 0.0 | 0.00 | 0.08 | 0.08 | 82 | 1011.8 |
| 20260507005433 | 16 | 213 | 0.0 | 3.2 | 0.00 | 0.08 | 0.08 | 80 | 1011.8 |
| 20260507004423 | 17 | 260 | 0.0 | 4.8 | 0.00 | 0.08 | 0.08 | 77 | 1011.6 |
| 20260507003921 | 17 | 102 | 3.2 | 11.3 | 0.00 | 0.08 | 0.08 | 74 | 1011.9 |
| 20260507002922 | 17 | 91 | 6.4 | 16.1 | 0.00 | 0.08 | 0.08 | 75 | 1011.8 |
| 20260507002421 | 16 | 229 | 0.0 | 16.1 | 0.00 | 0.08 | 0.08 | 76 | 1011.7 |
| 20260507001925 | 16 | 223 | 3.2 | 9.7 | 0.00 | 0.08 | 0.08 | 77 | 1011.8 |
| 20260507001417 | 17 | 111 | 4.8 | 6.4 | 0.00 | 0.08 | 0.08 | 77 | 1011.9 |
| 20260507000917 | 17 | 84 | 1.6 | 9.7 | 0.00 | 0.08 | 0.08 | 77 | 1011.8 |
| 20260507000409 | 17 | 216 | 6.4 | 9.7 | 0.03 | 0.08 | 0.08 | 77 | 1011.8 |
| 20260506235909 | 17 | 105 | 0.0 | 6.4 | 0.03 | 0.08 | 0.08 | 77 | 1011.9 |
| 20260506235417 | 17 | 107 | 1.6 | 6.4 | 0.03 | 0.08 | 0.08 | 77 | 1012.1 |
| 20260506234909 | 16 | 309 | 3.2 | 6.4 | 0.05 | 0.08 | 0.08 | 78 | 1012.1 |
| 20260506234410 | 16 | 98 | 1.6 | 9.7 | 0.08 | 0.08 | 0.08 | 80 | 1011.7 |
| 20260506233911 | 16 | 121 | 1.6 | 9.7 | 0.08 | 0.08 | 0.08 | 80 | 1012.1 |
| 20260506233409 | 16 | 114 | 1.6 | 9.7 | 0.08 | 0.08 | 0.08 | 80 | 1011.8 |
| 20260506232412 | 16 | 134 | 3.2 | 27.4 | 0.08 | 0.08 | 0.08 | 81 | 1012.1 |
| 20260506231408 | 16 | 63 | 3.2 | 22.5 | 0.08 | 0.08 | 0.08 | 81 | 1012.2 |
| 20260506230911 | 17 | 137 | 1.6 | 11.3 | 0.05 | 0.08 | 0.05 | 79 | 1012.2 |
| 20260506230409 | 17 | 80 | 1.6 | 14.5 | 0.05 | 0.05 | 0.05 | 78 | 1012.4 |
| 20260506225913 | 17 | 5 | 3.2 | 14.5 | 0.05 | 0.05 | 0.05 | 75 | 1012.1 |
| 20260506225411 | 18 | 166 | 1.6 | 11.3 | 0.05 | 0.05 | 0.05 | 74 | 1012.2 |
| 20260506224909 | 18 | 169 | 3.2 | 22.5 | 0.00 | 0.03 | 0.00 | 71 | 1012.1 |
| 20260506224408 | 18 | 121 | 1.6 | 22.5 | 0.00 | 0.00 | 0.00 | 71 | 1012.1 |
| 20260506223911 | 18 | 135 | 4.8 | 6.4 | 0.00 | 0.00 | 0.00 | 70 | 1011.9 |
| 20260506223410 | 18 | 352 | 3.2 | 6.4 | 0.00 | 0.00 | 0.00 | 71 | 1011.6 |
| 20260506222908 | 18 | 17 | 1.6 | 9.7 | 0.00 | 0.00 | 0.00 | 70 | 1011.7 |
| 20260506222412 | 18 | 145 | 0.0 | 9.7 | 0.00 | 0.00 | 0.00 | 69 | 1011.5 |
| 20260506221908 | 18 | 48 | 3.2 | 12.9 | 0.00 | 0.00 | 0.00 | 68 | 1011.5 |
| 20260506221409 | 18 | 226 | 3.2 | 14.5 | 0.00 | 0.00 | 0.00 | 68 | 1011.6 |
| 20260506220913 | 18 | 137 | 6.4 | 14.5 | 0.00 | 0.00 | 0.00 | 68 | 1011.7 |
| 20260506220410 | 18 | 152 | 3.2 | 16.1 | 0.00 | 0.00 | 0.00 | 69 | 1011.6 |
| 20260506215412 | 17 | 210 | 12.9 | 20.9 | 0.00 | 0.00 | 0.00 | 73 | 1011.8 |
| 20260506214359 | 17 | 288 | 0.0 | 6.4 | 0.00 | 0.00 | 0.00 | 76 | 1011.6 |
| 20260506213358 | 17 | 269 | 0.0 | 0.0 | 0.00 | 0.00 | 0.00 | 75 | 1011.6 |
| 20260506212356 | 18 | 275 | 0.0 | 3.2 | 0.00 | 0.00 | 0.00 | 72 | 1011.5 |
| 20260506211858 | 18 | 275 | 0.0 | 11.3 | 0.00 | 0.00 | 0.00 | 72 | 1011.5 |
| 20260506211359 | 18 | 175 | 1.6 | 11.3 | 0.00 | 0.00 | 0.00 | 70 | 1011.3 |
| 20260506210845 | 18 | 115 | 1.6 | 9.7 | 0.00 | 0.00 | 0.00 | 71 | 1011.3 |
| 20260506210348 | 18 | 136 | 3.2 | 12.9 | 0.00 | 0.00 | 0.00 | 72 | 1011.1 |
| 20260506205846 | 17 | 131 | 4.8 | 12.9 | 0.00 | 0.00 | 0.00 | 75 | 1011.3 |
| 20260506205347 | 17 | 62 | 3.2 | 6.4 | 0.00 | 0.00 | 0.00 | 75 | 1011.2 |
| 20260506204847 | 18 | 95 | 1.6 | 9.7 | 0.00 | 0.00 | 0.00 | 74 | 1011.3 |
| 20260506204346 | 18 | 242 | 1.6 | 17.7 | 0.00 | 0.00 | 0.00 | 75 | 1011.2 |
| 20260506203845 | 18 | 133 | 1.6 | 17.7 | 0.00 | 0.00 | 0.00 | 74 | 1011.5 |
| 20260506203347 | 18 | 206 | 4.8 | 16.1 | 0.00 | 0.00 | 0.00 | 75 | 1011.5 |
| 20260506202844 | 18 | 321 | 1.6 | 17.7 | 0.00 | 0.00 | 0.00 | 76 | 1011.7 |
| 20260506202345 | 18 | 88 | 3.2 | 22.5 | 0.00 | 0.00 | 0.00 | 75 | 1011.6 |
| 20260506201848 | 18 | 261 | 1.6 | 22.5 | 0.00 | 0.00 | 0.00 | 73 | 1011.7 |
| 20260506201344 | 19 | 225 | 8.0 | 25.7 | 0.00 | 0.00 | 0.00 | 68 | 1012.0 |
| 20260506200347 | 20 | 215 | 11.3 | 29.0 | 0.00 | 0.00 | 0.00 | 61 | 1012.0 |
| 20260506195345 | 21 | 335 | 6.4 | 37.0 | 0.00 | 0.00 | 0.00 | 57 | 1011.6 |
| 20260506194848 | 21 | 139 | 16.1 | 37.0 | 0.00 | 0.00 | 0.00 | 55 | 1011.6 |
| 20260506194345 | 21 | 174 | 8.0 | 17.7 | 0.00 | 0.00 | 0.00 | 54 | 1011.1 |
| 20260506193847 | 21 | 145 | 6.4 | 12.9 | 0.00 | 0.00 | 0.00 | 53 | 1010.9 |
| 20260506193332 | 21 | 315 | 0.0 | 9.7 | 0.00 | 0.00 | 0.00 | 54 | 1010.7 |
| 20260506192833 | 21 | 176 | 1.6 | 20.9 | 0.00 | 0.00 | 0.00 | 54 | 1011.0 |
| 20260506192339 | 21 | 208 | 4.8 | 20.9 | 0.00 | 0.00 | 0.00 | 54 | 1011.1 |
| 20260506191834 | 21 | 123 | 1.6 | 11.3 | 0.00 | 0.00 | 0.00 | 55 | 1010.9 |
| 20260506191332 | 20 | 196 | 1.6 | 11.3 | 0.00 | 0.00 | 0.00 | 56 | 1011.1 |
| 20260506190836 | 20 | 350 | 0.0 | 6.4 | 0.00 | 0.00 | 0.00 | 57 | 1010.6 |
| 20260506190334 | 20 | 133 | 0.0 | 6.4 | 0.00 | 0.00 | 0.00 | 57 | 1010.9 |
| 20260506185833 | 20 | 49 | 0.0 | 9.7 | 0.00 | 0.00 | 0.00 | 56 | 1010.5 |
| 20260506184833 | 20 | 308 | 3.2 | 6.4 | 0.00 | 0.00 | 0.00 | 55 | 1010.5 |
| 20260506183835 | 21 | 235 | 3.2 | 6.4 | 0.00 | 0.00 | 0.00 | 53 | 1010.7 |
| 20260506183330 | 21 | 320 | 0.0 | 6.4 | 0.00 | 0.00 | 0.00 | 53 | 1010.3 |
| 20260506182825 | 21 | 290 | 4.8 | 6.4 | 0.00 | 0.00 | 0.00 | 52 | 1010.1 |
| 20260506182308 | 21 | 215 | 3.2 | 9.7 | 0.00 | 0.00 | 0.00 | 51 | 1010.3 |
| 20260506181811 | 21 | 156 | 1.6 | 9.7 | 0.00 | 0.00 | 0.00 | 51 | 1010.2 |
| 20260506181310 | 22 | 175 | 1.6 | 12.9 | 0.00 | 0.00 | 0.00 | 50 | 1010.0 |
| 20260506180808 | 22 | 265 | 1.6 | 12.9 | 0.00 | 0.00 | 0.00 | 50 | 1010.3 |
| 20260506175808 | 22 | 196 | 0.0 | 16.1 | 0.00 | 0.00 | 0.00 | 50 | 1010.0 |
| 20260506175309 | 22 | 254 | 1.6 | 16.1 | 0.00 | 0.00 | 0.00 | 49 | 1010.0 |
| 20260506174813 | 22 | 241 | 1.6 | 9.7 | 0.00 | 0.00 | 0.00 | 49 | 1010.0 |
| 20260506174309 | 22 | 233 | 0.0 | 9.7 | 0.00 | 0.00 | 0.00 | 49 | 1010.0 |
| 20260506173809 | 22 | 287 | 3.2 | 9.7 | 0.00 | 0.00 | 0.00 | 49 | 1010.1 |
| 20260506173313 | 22 | 301 | 0.0 | 11.3 | 0.00 | 0.00 | 0.00 | 48 | 1010.1 |
| 20260506172808 | 23 | 287 | 0.0 | 11.3 | 0.00 | 0.00 | 0.00 | 48 | 1010.0 |
| 20260506172309 | 23 | 339 | 1.6 | 6.4 | 0.00 | 0.00 | 0.00 | 48 | 1010.0 |
| 20260506171812 | 23 | 109 | 1.6 | 6.4 | 0.00 | 0.00 | 0.00 | 47 | 1009.8 |
| 20260506171310 | 23 | 201 | 0.0 | 11.3 | 0.00 | 0.00 | 0.00 | 47 | 1010.2 |
| 20260506170809 | 23 | 122 | 4.8 | 11.3 | 0.00 | 0.00 | 0.00 | 47 | 1009.9 |
| 20260506170311 | 23 | 239 | 3.2 | 11.3 | 0.00 | 0.00 | 0.00 | 46 | 1009.9 |
| 20260506165809 | 23 | 191 | 3.2 | 11.3 | 0.00 | 0.00 | 0.00 | 46 | 1009.9 |
| 20260506164308 | 23 | 124 | 1.6 | 12.9 | 0.00 | 0.00 | 0.00 | 45 | 1010.0 |
| 20260506163311 | 23 | 278 | 4.8 | 14.5 | 0.00 | 0.00 | 0.00 | 44 | 1009.7 |
| 20260506162810 | 24 | 111 | 4.8 | 14.5 | 0.00 | 0.00 | 0.00 | 44 | 1009.8 |
| 20260506162311 | 24 | 93 | 3.2 | 20.9 | 0.00 | 0.00 | 0.00 | 44 | 1010.0 |
| 20260506161811 | 24 | 310 | 4.8 | 20.9 | 0.00 | 0.00 | 0.00 | 43 | 1010.1 |
| 20260506161308 | 24 | 283 | 3.2 | 14.5 | 0.00 | 0.00 | 0.00 | 43 | 1010.1 |
| 20260506160810 | 24 | 107 | 3.2 | 9.7 | 0.00 | 0.00 | 0.00 | 42 | 1010.0 |
| 20260506160311 | 25 | 73 | 0.0 | 17.7 | 0.00 | 0.00 | 0.00 | 42 | 1009.9 |
| 20260506155809 | 25 | 179 | 4.8 | 17.7 | 0.00 | 0.00 | 0.00 | 42 | 1010.1 |
| 20260506155309 | 25 | 214 | 3.2 | 14.5 | 0.00 | 0.00 | 0.00 | 43 | 1009.9 |
| 20260506154813 | 25 | 148 | 3.2 | 16.1 | 0.00 | 0.00 | 0.00 | 42 | 1010.1 |
| 20260506154309 | 25 | 75 | 0.0 | 16.1 | 0.00 | 0.00 | 0.00 | 42 | 1010.0 |
| 20260506153809 | 25 | 160 | 6.4 | 16.1 | 0.00 | 0.00 | 0.00 | 42 | 1010.2 |
| 20260506153313 | 25 | 222 | 4.8 | 16.1 | 0.00 | 0.00 | 0.00 | 42 | 1010.1 |
| 20260506152814 | 25 | 301 | 4.8 | 16.1 | 0.00 | 0.00 | 0.00 | 42 | 1010.1 |
| 20260506152308 | 25 | 283 | 1.6 | 16.1 | 0.00 | 0.00 | 0.00 | 41 | 1010.2 |
| 20260506151812 | 25 | 34 | 3.2 | 16.1 | 0.00 | 0.00 | 0.00 | 41 | 1010.0 |
| 20260506151308 | 25 | 94 | 3.2 | 17.7 | 0.00 | 0.00 | 0.00 | 41 | 1010.2 |
| 20260506150810 | 25 | 133 | 0.0 | 20.9 | 0.00 | 0.00 | 0.00 | 40 | 1010.2 |
| 20260506150304 | 25 | 117 | 4.8 | 20.9 | 0.00 | 0.00 | 0.00 | 39 | 1010.1 |
| 20260506145757 | 25 | 84 | 1.6 | 17.7 | 0.00 | 0.00 | 0.00 | 39 | 1010.2 |
| 20260506145305 | 25 | 233 | 6.4 | 12.9 | 0.00 | 0.00 | 0.00 | 39 | 1010.2 |
| 20260506144758 | 25 | 350 | 3.2 | 20.9 | 0.00 | 0.00 | 0.00 | 40 | 1010.5 |
| 20260506143801 | 25 | 123 | 3.2 | 24.1 | 0.00 | 0.00 | 0.00 | 40 | 1010.3 |
| 20260506142758 | 25 | 207 | 9.7 | 16.1 | 0.00 | 0.00 | 0.00 | 40 | 1010.3 |
| 20260506142301 | 25 | 134 | 1.6 | 16.1 | 0.00 | 0.00 | 0.00 | 39 | 1010.5 |
| 20260506141759 | 25 | 149 | 1.6 | 12.9 | 0.00 | 0.00 | 0.00 | 39 | 1010.4 |
| 20260506141258 | 25 | 229 | 8.0 | 16.1 | 0.00 | 0.00 | 0.00 | 38 | 1010.6 |
| 20260506140800 | 25 | 198 | 6.4 | 14.5 | 0.00 | 0.00 | 0.00 | 38 | 1010.5 |
| 20260506140258 | 25 | 162 | 9.7 | 22.5 | 0.00 | 0.00 | 0.00 | 38 | 1010.3 |
| 20260506135305 | 26 | 124 | 14.5 | 17.7 | 0.00 | 0.00 | 0.00 | 36 | 1010.2 |
| 20260506134758 | 26 | 257 | 3.2 | 24.1 | 0.00 | 0.00 | 0.00 | 36 | 1010.4 |
| 20260506134258 | 26 | 191 | 6.4 | 24.1 | 0.00 | 0.00 | 0.00 | 37 | 1010.6 |
| 20260506133802 | 26 | 192 | 3.2 | 16.1 | 0.00 | 0.00 | 0.00 | 37 | 1010.6 |
| 20260506133256 | 25 | 51 | 1.6 | 24.1 | 0.00 | 0.00 | 0.00 | 36 | 1010.5 |
| 20260506132757 | 25 | 47 | 0.0 | 24.1 | 0.00 | 0.00 | 0.00 | 38 | 1010.9 |
| 20260506132259 | 25 | 148 | 0.0 | 22.5 | 0.00 | 0.00 | 0.00 | 37 | 1010.5 |
| 20260506131757 | 25 | 230 | 8.0 | 22.5 | 0.00 | 0.00 | 0.00 | 37 | 1010.7 |
| 20260506131256 | 25 | 277 | 11.3 | 16.1 | 0.00 | 0.00 | 0.00 | 38 | 1010.9 |
| 20260506130759 | 25 | 213 | 11.3 | 16.1 | 0.00 | 0.00 | 0.00 | 37 | 1010.5 |
| 20260506130258 | 25 | 88 | 1.6 | 17.7 | 0.00 | 0.00 | 0.00 | 37 | 1010.7 |
| 20260506125757 | 25 | 200 | 9.7 | 22.5 | 0.00 | 0.00 | 0.00 | 36 | 1011.0 |
| 20260506125300 | 25 | 354 | 3.2 | 33.8 | 0.00 | 0.00 | 0.00 | 37 | 1010.9 |
| 20260506124757 | 25 | 205 | 8.0 | 33.8 | 0.00 | 0.00 | 0.00 | 37 | 1011.0 |
| 20260506123800 | 25 | 110 | 3.2 | 20.9 | 0.00 | 0.00 | 0.00 | 37 | 1011.0 |
| 20260506122756 | 25 | 237 | 6.4 | 22.5 | 0.00 | 0.00 | 0.00 | 39 | 1010.9 |
| 20260506122259 | 25 | 110 | 3.2 | 27.4 | 0.00 | 0.00 | 0.00 | 37 | 1011.1 |
| 20260506121756 | 25 | 93 | 4.8 | 27.4 | 0.00 | 0.00 | 0.00 | 37 | 1011.2 |
| 20260506121257 | 25 | 329 | 8.0 | 24.1 | 0.00 | 0.00 | 0.00 | 38 | 1011.4 |
| 20260506120803 | 25 | 186 | 9.7 | 29.0 | 0.00 | 0.00 | 0.00 | 39 | 1011.0 |
| 20260506115757 | 25 | 144 | 12.9 | 37.0 | 0.00 | 0.00 | 0.00 | 41 | 1011.4 |
| 20260506114745 | 25 | 104 | 6.4 | 25.7 | 0.00 | 0.00 | 0.00 | 38 | 1011.0 |
| 20260506114249 | 25 | 59 | 11.3 | 25.7 | 0.00 | 0.00 | 0.00 | 43 | 1011.2 |
| 20260506113744 | 25 | 100 | 9.7 | 24.1 | 0.00 | 0.00 | 0.00 | 43 | 1011.5 |
| 20260506113247 | 24 | 126 | 3.2 | 25.7 | 0.00 | 0.00 | 0.00 | 43 | 1011.3 |
| 20260506112748 | 24 | 108 | 9.7 | 25.7 | 0.00 | 0.00 | 0.00 | 43 | 1011.4 |
| 20260506111746 | 24 | 134 | 3.2 | 30.6 | 0.00 | 0.00 | 0.00 | 45 | 1011.4 |
| 20260506111247 | 24 | 46 | 4.8 | 30.6 | 0.00 | 0.00 | 0.00 | 44 | 1011.7 |
| 20260506110745 | 24 | 89 | 4.8 | 20.9 | 0.00 | 0.00 | 0.00 | 45 | 1011.4 |
| 20260506110247 | 24 | 230 | 8.0 | 20.9 | 0.00 | 0.00 | 0.00 | 43 | 1011.5 |
| 20260506105747 | 24 | 96 | 4.8 | 20.9 | 0.00 | 0.00 | 0.00 | 45 | 1011.6 |
| 20260506105244 | 24 | 132 | 1.6 | 27.4 | 0.00 | 0.00 | 0.00 | 46 | 1011.7 |
| 20260506104745 | 23 | 212 | 4.8 | 27.4 | 0.00 | 0.00 | 0.00 | 47 | 1011.6 |
| 20260506104247 | 23 | 114 | 9.7 | 24.1 | 0.00 | 0.00 | 0.00 | 47 | 1011.7 |
| 20260506103748 | 23 | 173 | 11.3 | 22.5 | 0.00 | 0.00 | 0.00 | 48 | 1011.9 |
| 20260506103244 | 23 | 121 | 4.8 | 24.1 | 0.00 | 0.00 | 0.00 | 48 | 1011.9 |
| 20260506102747 | 23 | 95 | 4.8 | 24.1 | 0.00 | 0.00 | 0.00 | 50 | 1011.9 |
| 20260506102246 | 22 | 111 | 6.4 | 24.1 | 0.00 | 0.00 | 0.00 | 52 | 1012.0 |
| 20260506101746 | 22 | 168 | 6.4 | 16.1 | 0.00 | 0.00 | 0.00 | 51 | 1011.9 |
| 20260506101247 | 22 | 282 | 1.6 | 16.1 | 0.00 | 0.00 | 0.00 | 51 | 1012.0 |
| 20260506100247 | 22 | 60 | 0.0 | 17.7 | 0.00 | 0.00 | 0.00 | 52 | 1012.1 |
| 20260506095246 | 22 | 156 | 8.0 | 17.7 | 0.00 | 0.00 | 0.00 | 51 | 1012.1 |
| 20260506094745 | 22 | 109 | 6.4 | 17.7 | 0.00 | 0.00 | 0.00 | 50 | 1012.0 |
| 20260506094250 | 22 | 140 | 12.9 | 17.7 | 0.00 | 0.00 | 0.00 | 50 | 1012.1 |
| 20260506093747 | 22 | 297 | 3.2 | 20.9 | 0.00 | 0.00 | 0.00 | 51 | 1012.0 |
| 20260506093245 | 22 | 181 | 6.4 | 20.9 | 0.00 | 0.00 | 0.00 | 52 | 1012.1 |
| 20260506092746 | 21 | 148 | 3.2 | 12.9 | 0.00 | 0.00 | 0.00 | 53 | 1012.1 |
| 20260506091733 | 21 | 134 | 8.0 | 20.9 | 0.00 | 0.00 | 0.00 | 52 | 1012.1 |
| 20260506090732 | 21 | 158 | 6.4 | 17.7 | 0.00 | 0.00 | 0.00 | 53 | 1012.4 |
| 20260506090234 | 21 | 97 | 4.8 | 24.1 | 0.00 | 0.00 | 0.00 | 52 | 1012.2 |
| 20260506085233 | 21 | 105 | 8.0 | 17.7 | 0.00 | 0.00 | 0.00 | 54 | 1012.1 |
| 20260506084734 | 21 | 129 | 9.7 | 16.1 | 0.00 | 0.00 | 0.00 | 54 | 1012.0 |
| 20260506084215 | 20 | 111 | 6.4 | 24.1 | 0.00 | 0.00 | 0.00 | 55 | 1012.3 |
| 20260506083711 | 21 | 158 | 14.5 | 24.1 | 0.00 | 0.00 | 0.00 | 55 | 1012.1 |
| 20260506082658 | 20 | 205 | 6.4 | 17.7 | 0.00 | 0.00 | 0.00 | 56 | 1012.2 |
| 20260506081157 | 20 | 50 | 6.4 | 16.1 | 0.00 | 0.00 | 0.00 | 56 | 1012.1 |
| 20260506080156 | 20 | 129 | 6.4 | 14.5 | 0.00 | 0.00 | 0.00 | 58 | 1012.0 |
| 20260506072700 | 19 | 93 | 9.7 | 12.9 | 0.00 | 0.00 | 0.00 | 59 | 1012.3 |
| 20260506072158 | 18 | 114 | 3.2 | 12.9 | 0.00 | 0.00 | 0.00 | 60 | 1012.3 |
| 20260506071158 | 18 | 148 | 3.2 | 14.5 | 0.00 | 0.00 | 0.00 | 60 | 1012.2 |
| 20260506070659 | 18 | 101 | 6.4 | 14.5 | 0.00 | 0.00 | 0.00 | 61 | 1012.2 |
| 20260506070158 | 18 | 136 | 4.8 | 14.5 | 0.00 | 0.00 | 0.00 | 61 | 1012.4 |
| 20260506062157 | 17 | 221 | 4.8 | 11.3 | 0.00 | 0.00 | 0.00 | 64 | 1012.2 |
| 20260506061659 | 17 | 250 | 0.0 | 11.3 | 0.00 | 0.00 | 0.00 | 64 | 1012.1 |
| 20260506061157 | 17 | 228 | 4.8 | 11.3 | 0.00 | 0.00 | 0.00 | 63 | 1012.2 |